Preview of NWS' New Version of Forecast
This preview is not operational and should not be used for support decisions.

Regional Weather Roundup (RWR)

Issued by National Weather Service (NWS)

                            
000
ASCA42 TJSJ 181810
RWRPR 
PUERTO RICO/U.S. VIRGIN ISLANDS HOURLY WEATHER ROUNDUP
NATIONAL WEATHER SERVICE SAN JUAN PR
200 PM AST WED SEP 18 2019

PRZ001>002-007>008-010-181900-
PUERTO RICO
  
CITY           SKY/WX    TMP DP  RH WIND       PRES   REMARKS
SAN JUAN LMM   MOSUNNY   88  77  70 E14       29.83F HX 100           
AGUADILLA      CLOUDY    84  77  79 E8        29.86F HX  94           
CEIBA          SUNNY     88  79  74 E14       29.86F HX 102           
$$

VIZ001>002-181900-
U.S. VIRGIN ISLANDS
  
CITY           SKY/WX    TMP DP  RH WIND       PRES   REMARKS
CHARLOTTE AMA  MOSUNNY   90  72  55 SE14      29.84F HX  96           
CHRISTIANSTED  MOSUNNY   90  73  58 E15       29.85F HX  98           
$$

HOURLY WEATHER ROUNDUP FOR THE NEWS MEDIA
  
CITY           SKY/WX    TMP DP  RH WIND       PRES   REMARKS
ORLANDO        FAIR      89  71  55 NE7       29.98F HX  95           
NEW YORK       PTSUNNY   68  49  50 NE12G22   30.24F                  
NEWARK         PTSUNNY   69  49  48 NE7       30.23F                  
CHICAGO        PTSUNNY   79  62  56 S7        30.14F                  
HARTFORD       CLOUDY    60  45  57 NE15G22   30.26R                  
BOSTON         FAIR      63  41  44 NE16      30.31R                  
DALLAS         PTSUNNY   89  70  53 VRB6      29.94F HX  94           
PHILADELPHIA   FAIR      74  48  39 NE9G20    30.21F                  
LOS ANGELES    MOSUNNY   77  61  57 CALM      29.94F                  
WASHINGTON DC  PTSUNNY   76  50  40 NE7       30.20F